Regional Weather Roundup
Issued by NWS

Home | Current Version | Previous Version | Text Only | Print | Product List | Glossary On
Versions: 1 2 3 4 5 6 7 8 9 10 11 12 13 14 15 16 17 18 19 20 21 22 23 24 25 26 27 28 29 30 31 32 33 34 35 36 37 38 39 40 41 42 43 44 45 46 47 48 49 50
000
ASHW40 PHFO 272112
RWRHI

WEATHER ROUNDUP FOR HAWAII
NATIONAL WEATHER SERVICE HONOLULU HI
1100 AM HST WED JUL 27 2016

THIS IS AN AUTOMATED REPORT THAT HAS NOT BEEN QUALITY CONTROLLED.

NOTE..."FAIR" INDICATES FEW OR NO CLOUDS BELOW 12,000 FEET WITH NO
SIGNIFICANT WEATHER AND/OR OBSTRUCTIONS TO VISIBILITY.

* - THESE SITES REPORT LIMITED FIELDS

HIZ001>004-272200-
KAUAI-NIIHAU-

CITY           SKY/WX    TMP DP  RH WIND       PRES   REMARKS
LIHUE APT      CLOUDY    84  71  65 NE15      30.07S
PORT ALLEN*      N/A     86 N/A N/A NE24G33     N/A
POIPU*           N/A     84 N/A N/A NE10G21     N/A
PRINCEVILLE*     N/A     81 N/A N/A E12G20      N/A
KOKOLE POINT*  NOT AVBL
MOLOAA DAIRY*    N/A     82  72  69 SE12G17     N/A
WAIMEA HTS*    NOT AVBL
PUU OPAE*      NOT AVBL
PUU LUA*       NOT AVBL
MAKAHA RIDGE*  NOT AVBL
$$

HIZ005>011-272200-
OAHU-

CITY           SKY/WX    TMP DP  RH WIND       PRES   REMARKS
HONOLULU       MOSUNNY   83  66  56 NE17G23   30.02S
KALAELOA       MOSUNNY   88  68  51 NE14G20   30.03S HX  91
KANEOHE MCB    MOSUNNY   84  72  67 NE10      30.02F
WHEELER FIELD  FAIR      82  70  68 E14G21    30.05S
BELLOWS*       NOT AVBL
KAHUKU*        NOT AVBL
WHEELER*       NOT AVBL
WAIANAE HARBOR NOT AVBL
DILLINGHAM*      N/A     70  52  52 MISG        N/A
KAHUKU TRN*      N/A     86  73  66 W13G26      N/A  HX  93
KAWAILOA*        N/A     79  66  65 E7G18       N/A
KII*             N/A     82  73  74 E17G25      N/A
MAKUA RANGE*     N/A     88  68  51 NW12G22     N/A  HX  91
OAHU FOREST NW NOT AVBL
SCHOFIELD BRK*   N/A     72  59  64 MISG        N/A
SCHOFIELD S*   NOT AVBL
WAIANAE VLY*   NOT AVBL
KUAOKALA*      NOT AVBL
HONOULIUULI*   NOT AVBL
MOKUOLOE IS*   NOT AVBL
PALEHUA*       NOT AVBL
WAIAWA PHB*    NOT AVBL
$$

HIZ012>013-272200-
MOLOKAI-

CITY           SKY/WX    TMP DP  RH WIND       PRES   REMARKS
MOLOKAI AIRPT  SUNNY     85  71  63 NE21G30   30.02S HX  90
KALAUPAPA      NOT AVBL
MAKAPULAPAI*   NOT AVBL
MOLOKAI 1*     NOT AVBL
PUU ALII*      NOT AVBL
$$

HIZ016-272200-
KAHOOLAWE-

CITY           SKY/WX    TMP DP  RH WIND       PRES   REMARKS
KAHOOLAWE*     NOT AVBL
HAKIOAWA*      NOT AVBL
HONOKANAIA*      N/A     89  66  46 NE20G37   29.94F HX  91
KANELOA*         N/A     82  70  65 NE20G38   30.08R
KEALIALALO*    NOT AVBL
LUA MAKIKA*    NOT AVBL
$$

HIZ014>015-272200-
LANAI-

CITY           SKY/WX    TMP DP  RH WIND       PRES   REMARKS
LANAI CITY     CLOUDY    80  67  64 S8        30.07R
LANAI 1*       NOT AVBL
$$

HIZ017>028-272200-
MAUI-

CITY           SKY/WX    TMP DP  RH WIND       PRES   REMARKS
KAHULUI        MOSUNNY   89  69  51 NE23G35   30.00F HX  93
KAPALUA-W MAUI MOSUNNY   86  66  51 NE12G21   30.02F
HANA AIRPORT     N/A     84  73  70 NE6       30.07F HX  91
HANA*            N/A     82 N/A N/A NE13G18     N/A
HALEAKALA SUMM   N/A     54  30  40 E39G53      N/A
MAALAEA BAY*   NOT AVBL
HALEAKALA*     NOT AVBL
KAUPO GAP*     NOT AVBL
KULA 1*          N/A     77  37  24 SE7G20      N/A
$$

HIZ023>026-272200-
BIG ISLAND OF HAWAII COAST AND LOWER SLOPES-

CITY           SKY/WX    TMP DP  RH WIND       PRES   REMARKS
KAILUA KONA    PTSUNNY   86  72  62 S14       29.95F HX  92
HILO           LGT RAIN  84  70  62 N12       30.03F
HONOKAA*         N/A     77 N/A N/A VRB1        N/A
KAWAIHAE MWT*    N/A     86 N/A N/A W12         N/A
KAWAIHAE*      NOT AVBL
SOUTH POINT*     N/A     81 N/A N/A N24G37      N/A
UPOLU AIRPORT*   N/A    N/A N/A N/A NE25G33     N/A
KAMUELA*       MOCLDY    79  66  65 NE22G40   30.06S
HAKALAU*         N/A     70  51  50 E3G12       N/A
KALOKO-HONOKO* NOT AVBL
PALI 2*          N/A    N/A N/A N/A S22G35      N/A
KEALAKOMO*       N/A     88  68  51 NE24G33     N/A  HX  91
KAUPULEHU*     NOT AVBL
KAPAPALA*        N/A     85  67  55 W7G15       N/A
LOWER KAHUKU*  NOT AVBL
PUHE CS*       NOT AVBL
PUHO CS*       NOT AVBL
PTA KEAMUKU*     N/A     79  61  53 CALM        N/A
WAIKOLOA*      NOT AVBL
$$

HIZ027>028-272200-
BIG ISLAND OF HAWAII INTERIOR AND SUMMMITS-

CITY           SKY/WX    TMP DP  RH WIND       PRES   REMARKS
BRADSHAW FIELD SUNNY     81  23  11 SE16G37   30.32F
MK VISITOR CEN   N/A     59  27  29 E16G32      N/A
MAUNA KEA*       N/A     37  19  48 S48         N/A  WCI  22
MAUNA LOA*     NOT AVBL
MAUNA LOA 1*   NOT AVBL
PTA KIPUKA*      N/A    N/A N/A N/A E18G30      N/A
PTA RANGE 17*    N/A     79  39  24 SE20G35     N/A
PTA WEST*        N/A     55  43  62 NW12G18     N/A
NENE CABIN*    NOT AVBL
AHUMOA*        NOT AVBL
PTA PORTABLE*  NOT AVBL
PUU MALI*      NOT AVBL
$$

HIC003-272200-
NORTHWEST ISLANDS-

CITY           SKY/WX    TMP DP  RH WIND       PRES   REMARKS
MIDWAY ISLAND  MOSUNNY   81  70  69 E12       30.13R
MIDWAY NOS*    NOT AVBL
FRENCH FRIGATE NOT AVBL
$$

PHZ110>124-180-272200-
BUOY REPORTS

STATION/POSITION TIME  TEMP    WIND        PRES    WAVE   SWELL
                       AIR SEA DIR/SP/G            HT/PER HT/DIR
                 (UTC) (F)     (DEG/KT/KT) (MB)    (FT/S) (FT/D)
BUOY 51001       2000   81 81  110/  6/ 10 1015.8R
BUOY 51101       2050   79 79   90/ 12/ 14 1018.3F   4/13   3/180
BUOY 51100       NOT AVBL
BUOY 51002       2050   82 82   90/ 16/ 19 1014.2R   7/ 6   3
BUOY 51003       2050   82 82   60/ 14/ 17 1015.0F   5/ 8   3/120
BUOY 51004       2050   79 81   80/ 16/ 17 1014.7R   7/ 8   5/ 90
BARBERS PT BUOY  NOT AVBL
WAIMEA BAY BUOY  2004      80                N/A     4/ 6
KAILUA BAY BUOY  2011      80                N/A     5/ 6   2/160
LANAI BUOY       2015      82                N/A     3/13   2/200
BARBERS PT 2     NOT AVBL
PAUWELA MAUI     2009      80                N/A     5/ 6
HILO             2012      80                N/A     6/ 7   2/120
KANEOHE BAY BUOY 2006      79                N/A     5/ 6
HANALEI KAUAI    NOT AVBL
KAHULUI HARBOR   2000   80 81   20/ 16/ 20 1016.6F
HONOLULU HARBOR  2000   83 80   80/  5/ 17 1017.3F
KILO NALU        NOT AVBL
HILO HARBOR      2000   81 78   30/  5/ 10 1017.0R
MOKUOLOE         2000   82 82   60/ 12/ 16 1017.5F
NAWILIWILI       2000   80 81   60/ 13/ 18 1018.0R
WHOTS BUOY       NOT AVBL
BUOY 51028       NOT AVBL
$$

......................KEY........................................
  SKY/WX - SKY CONDITIONS/PRESENT WEATHER
  TMP    - TEMPERATURE IN FAHRENHEIT
  DWPT   - DEWPOINT IN FAHRENHEIT
  RH     - RELATIVE HUMIDITY IN PERCENT
  WIND   - DIRECTION AND SPEED /MPH FOR ISLANDS...KTS FOR BUOYS/
  PRES   - MEAN SEA LEVEL PRESSURE IN INCHES OF HG
  VSB    - VISIBILITY IN MILES
  HX     - HEAT INDEX
  WCI    - WIND CHILL INDEX
  VRB    - VARIABLE WIND DIRECTION
  N/A    - NOT AVAILABLE



USA.gov is the U.S. government's official web portal to all federal, state and local government web resources and services.